This is the latest recevied weather packets stored in our database for station/object KF4UQS-14. If no packets are shown the sender has not sent any weather packets the latest 10 day(s).
| Time | Temp. | Humidity | Pressure | Rain* | Wind** | Luminosity | Snow |
|---|---|---|---|---|---|---|---|
| 1778166355 | 12.78° C | 99% | 1011.7 hPa | 3.05 mm | - | 58 W/m² | - |
| 1778166051 | 12.78° C | 99% | 1011.4 hPa | 3.56 mm | - | 38 W/m² | - |
| 1778165745 | 12.78° C | 99% | 1011.6 hPa | 3.05 mm | - | 61 W/m² | - |
| 1778165444 | 12.78° C | 99% | 1011.4 hPa | 3.05 mm | - | 44 W/m² | - |
| 1778165140 | 12.78° C | 99% | 1011.3 hPa | 1.78 mm | - | 43 W/m² | - |
| 1778164838 | 13.33° C | 99% | 1011.3 hPa | 3.05 mm | - | 39 W/m² | - |
| 1778164535 | 13.89° C | 99% | 1011.5 hPa | 3.05 mm | - | 43 W/m² | - |
| 1778164232 | 13.89° C | 99% | 1011.1 hPa | 3.05 mm | - | 39 W/m² | - |
| 1778163936 | 14.44° C | 99% | 1011.2 hPa | 3.05 mm | - | 65 W/m² | - |
| 1778163625 | 14.44° C | 99% | 1010.9 hPa | 1.78 mm | - | 61 W/m² | - |
| 1778163321 | 14.44° C | 99% | 1010.9 hPa | 1.27 mm | - | 61 W/m² | - |
| 1778163017 | 14.44° C | 99% | 1011 hPa | 4.32 mm | - | 48 W/m² | - |
| 1778162714 | 15° C | 99% | 1011.1 hPa | 4.83 mm | - | 58 W/m² | - |
| 1778162412 | 15° C | 99% | 1011 hPa | 3.56 mm | - | 50 W/m² | - |
| 1778162108 | 15° C | 99% | 1011.2 hPa | 3.05 mm | - | 30 W/m² | - |
| 1778161806 | 15.56° C | 99% | 1010.9 hPa | 3.05 mm | - | 31 W/m² | - |
| 1778161502 | 15.56° C | 99% | 1010.8 hPa | 3.05 mm | - | 35 W/m² | - |
| 1778161198 | 15.56° C | 99% | 1010.8 hPa | 4.32 mm | - | 38 W/m² | - |
| 1778160894 | 15.56° C | 98% | 1010.8 hPa | 4.83 mm | - | 36 W/m² | - |
| 1778160593 | 15.56° C | 98% | 1010.9 hPa | 4.83 mm | - | 31 W/m² | - |
| 1778160289 | 15.56° C | 98% | 1010.9 hPa | 4.32 mm | - | 34 W/m² | - |
| 1778159985 | 15.56° C | 98% | 1011 hPa | 4.83 mm | - | 33 W/m² | - |
| 1778159682 | 15.56° C | 98% | 1010.9 hPa | 4.83 mm | - | 37 W/m² | - |
| 1778159379 | 15.56° C | 98% | 1011 hPa | 6.1 mm | - | 57 W/m² | - |
| 1778159076 | 15.56° C | 98% | 1011.3 hPa | 4.83 mm | - | 28 W/m² | - |
* Rain latest hour (hover to see other rain measurements)
** Current wind speed in m/s (hover to see current wind gust speed)